• MPC Preparation (Info)

  • MPEC 2024-F87 : 2024 FQ2

    The following Minor Planet Electronic Circular may be linked-to from your own Web pages, but must not otherwise be redistributed electronically.

    A form allowing access to any MPEC is at the bottom of this page.


    Read MPEC 2024-F86 Read MPEC 2024-F88


    M.P.E.C. 2024-F87                                Issued 2024 March 26, 19:42 UT
    
         The Minor Planet Electronic Circulars contain information on unusual
             minor planets, routine data on comets and natural satellites,
             and occasional editorial announcements.  They are published
        on behalf of Division F of the International Astronomical Union by the
              Minor Planet Center, Smithsonian Astrophysical Observatory,
                              Cambridge, MA 02138, U.S.A.
    			  
                 Prepared using the Tamkin Foundation Computer Network
    
                                  MPC@CFA.HARVARD.EDU
                URL https://www.minorplanetcenter.net/    ISSN 1523-6714
    
                                    2024 FQ2                                 
    
    
    Observations:
         K24F02Q* C2024 03 17.54403612 44 06.755+27 41 22.21         20.90wXEF087F52
         K24F02Q  C2024 03 17.56613112 44 06.749+27 36 03.66         20.70wXEF087F52
         K24F02Q  C2024 03 17.57717712 44 06.775+27 33 23.94         21.41wXEF087F52
         K24F02Q 1C2024 03 17.91727 12 44 29.66 +26 13 36.3          21.0 VXEF087033
         K24F02Q 1C2024 03 17.91843 12 44 29.67 +26 13 20.6          21.4 VXEF087033
         K24F02Q 1C2024 03 17.91959 12 44 29.68 +26 13 05.5          21.3 VXEF087033
         K24F02Q  C2024 03 18.36594112 44 49.359+24 35 41.06         22.24GVEF087F52
         K24F02Q  C2024 03 18.39195412 44 49.306+24 30 12.55         21.06GVEF087F52
         K24F02Q 1C2024 03 19.47757412 45 20.637+20 54 32.06         21.55GVEF087T12
         K24F02Q 1C2024 03 19.47947412 45 20.608+20 54 10.99         21.81GVEF087T12
    
    Observer details:
    033 Karl Schwarzschild Observatory, Tautenburg.  Observers S. Melnikov, C.
        Hogner, F. Ludwig, M. Hartmann, B. Stecklum.  Measurer B. Stecklum.
        1.34-m f/3 Schmidt + CCD.
    F52 Pan-STARRS 2, Haleakala.  Observers J. Herman, T. Lowe, P. Minguez, A.
        Schultz, I. Smith.  Measurers K. Chambers, T. de Boer, J. Fairlamb, H.
        Gao, M. Huber, C.-C. Lin, E. Magnier, Y. Ramanjooloo, R. Wainscoat, R.
        Weryk.  1.8-m Ritchey-Chretien + CCD.
    T12 University of Hawaii 88-inch telescope, Maunakea.  Observer J. Fairlamb.
        Measurers R. Weryk, J. Fairlamb, Y. Ramanjooloo, R. Wainscoat.  2.24-m
        f/10.1 reflector + CCD.
    
    Orbital elements:
    2024 FQ2                                                 Earth MOID = 0.0500 AU
    Epoch 2024 Mar. 31.0 TT = JDT 2460400.5                 Bell                    
    M  12.15537              (2000.0)            P               Q                  
    n   0.23910468     Peri.  108.96448     -0.62192621     -0.78249677             
    a   2.5708535      Node    19.58627     +0.68042990     -0.55903543             
    e   0.6421410      Incl.    5.15320     +0.38758604     -0.27418642             
    P   4.12           H   25.72          G   0.15           U   8                  
    Residuals in seconds of arc
    240317 F52  0.0   0.2+    240317 033  0.5+  0.1-    240319 T12  0.0   0.0
    240317 F52  0.0   0.2+    240317 033  0.5+  0.4+    240319 T12  0.0   0.0
    240317 F52  0.1-  0.3-    240318 F52  0.2-  0.3-
    240317 033  0.6+  0.1-    240318 F52  0.1+  0.3+
    
    Ephemeris:
    2024 FQ2                 a,e,i = 2.57, 0.64, 5                   q = 0.9200
    Date    TT    R. A. (2000) Decl.     Delta      r    Elong.  Phase     V
    2024 02 25    01 01 08.7 +45 22 02   0.1105  0.9475    64.6   109.4    25.0
    ...
    2024 03 11    12 26 38.2 +66 01 08   0.05314 1.0185   116.8    60.5    21.6
    ...
    2024 03 19    12 45 06.4 +22 25 48   0.08145 1.0699   154.9    23.2    21.5
    ...
    2024 03 25    12 46 46.2 +08 33 25   0.1184  1.1130   167.2    11.4    22.0
    2024 03 26    12 46 51.9 +07 02 42   0.1252  1.1205   168.6    10.1    22.1
    2024 03 27    12 46 55.9 +05 41 01   0.1321  1.1281   169.9     8.9    22.2
    ...
    2024 04 02    12 47 00.1 -00 13 26   0.1762  1.1752   175.3     4.0    22.7
    ...
    2024 04 10    12 47 02.4 -04 39 35   0.2412  1.2414   172.3     6.2    23.6
    ...
    2024 04 25    12 49 36.1 -08 45 36   0.3833  1.3718   159.6    14.8    25.2
    
    M. P. C. Staff               (C) Copyright 2024 MPC           M.P.E.C. 2024-F87
    


    Read MPEC 2024-F86 Read MPEC 2024-F88


    MPEC number:

    Enter an MPEC number in one of the following forms:

    • 1997-B01 (the full form)
    • J97B01 (the packed version of the full form)
    • B01 (the abbreviated form)